Regional Weather Roundup
Issued by NWS

Home | Current Version | Previous Version | Graphics & Text | Print | Product List | Glossary On
Versions: 1 2 3 4 5 6 7 8 9 10 11 12 13 14 15 16 17 18 19 20 21 22 23 24 25 26 27 28 29 30 31 32 33 34 35 36 37 38 39 40 41 42 43 44 45 46 47 48 49 50
000
ASUS45 KBOU 282107
RWRCO

WEATHER ROUNDUP FOR COLORADO
NATIONAL WEATHER SERVICE DENVER/BOULDER CO
200 PM MST FRI NOV 28 2014

NOTE: "FAIR" INDICATES FEW OR NO CLOUDS BELOW 12000 FEET WITH NO
SIGNIFICANT WEATHER AND/OR OBSTRUCTIONS TO VISIBILITY.

COZ001>005-013-030-031-282200-
...NORTHWEST COLORADO...

CITY           SKY/WX    TMP DP  RH WIND       PRES   REMARKS
CRAIG          PTSUNNY   53  26  35 NE7       30.00F
HAYDEN         PTSUNNY   43  23  45 E6        30.02F
MEEKER         PTSUNNY   55  18  23 SW10      30.03F
MOUNT WERNER   NOT AVBL
STEAMBOAT SPGS PTSUNNY   36  26  68 CALM      30.03F
WALDEN         PTSUNNY   50  14  23 SW21G26   30.04S
$$

COZ006>008-011-282200-
...WEST CENTRAL VALLEYS...

CITY           SKY/WX    TMP DP  RH WIND       PRES   REMARKS
GRAND JUNCTION MOSUNNY   49  26  41 W3        30.07F
MONTROSE       MOSUNNY   57  20  23 CALM      30.07F
EAGLE          MOSUNNY   54  19  26 W7        30.06F
RIFLE          PTSUNNY   48  23  37 CALM      30.06F
DELTA          MOSUNNY   58  23  25 SW3       30.06F
NUCLA          MOSUNNY   59  18  20 N5        30.12F
$$

COZ017>023-064>068-282200-
...SOUTHWEST COLORADO...

CITY           SKY/WX    TMP DP  RH WIND       PRES   REMARKS
DURANGO        SUNNY     56  18  22 VRB5      30.15F
CORTEZ         SUNNY     57  22  25 SW6       30.13F
PAGOSA SPRINGS SUNNY     55   3  12 SW3       30.19F
TELLURIDE      SUNNY     54   4  13 W8        30.23F
WOLF CREEK PAS SUNNY     34   9  35 MISG      30.30F
$$

COZ009-010-012-014-032>034-037-058>063-282200-
...CENTRAL COLORADO...

CITY           SKY/WX    TMP DP  RH WIND       PRES   REMARKS
ASPEN          MOSUNNY   51  20  29 NW6       30.08F
BUENA VISTA    SUNNY     59   4  11 W14G28    30.06F
COPPER MTN     MOSUNNY   37   5  25 W29G44    30.23F HAZE
BERTHOUD PASS  NOT AVBL
COTTONWOOD PAS SUNNY     50  -9   8 W31G53    30.09F
GUNNISON       SUNNY     36  18  48 N3        30.20F
KREMMLING      MOSUNNY   54  14  20 SW8G16    30.06F
LEADVILLE      MOSUNNY   45   7  21 W21G28    30.14F
MONARCH PASS   SUNNY     34   3  27 W40G55    30.35F WCI  18
SALIDA         SUNNY     63  -1   8 SW14G24   30.13F
SUNLIGHT       MOSUNNY   41  21  45 CALM      30.22F
WILKERSON PASS MOSUNNY   43  -4  14 W14G32    30.17S
$$

COZ069>075-282200-
...SAN LUIS VALLEY/SANGRE DE CRISTO MOUNTAINS...

CITY           SKY/WX    TMP DP  RH WIND       PRES   REMARKS
ALAMOSA        SUNNY     57  13  17 W6        30.09F
LA VETA PASS   PTSUNNY   46   9  21 S15G31    30.13F
SAGUACHE       SUNNY     50  16  25 S5        30.12F
$$

COZ035-036-038>040-282200-
...NORTHERN COLORADO FRONT RANGE...

CITY           SKY/WX    TMP DP  RH WIND       PRES   REMARKS
DENVER INTL AP CLOUDY    65  20  17 E9        29.84F
DMNS CITY PARK   N/A     67  13  12 E5        29.83F
AURORA         PTSUNNY   66  14  13 NE7       29.86F
FRONT RANGE AP NOT AVBL
ERIE MUNI ARPT CLOUDY    69   5   8 SW6       29.81F
BOULDER MUN AP CLOUDY    68  12  11 SW13      29.80F
CENTENNIAL     CLOUDY    68   7   9 NE3       29.86F
BROOMFIELD     PTSUNNY   64  16  15 VRB3      29.85F
FORT COLLINS   CLOUDY    66  12  12 SW20      29.81F
LONGMONT       CLOUDY    66  13  12 E13G18    29.81F
$$

COZ041-046-047-076>085-087-088-282200-
...PIKES PEAK/PALMER DIVIDE AND SOUTHERN FOOTHILLS...

CITY           SKY/WX    TMP DP  RH WIND       PRES   REMARKS
COLO. SPRINGS  PTSUNNY   68   8   9 S7        29.91F
A. F. ACADEMY  PTSUNNY   68  -2   6 W18G29    29.91F
ELLICOTT       NOT AVBL
FALCON         NOT AVBL
FORT CARSON    PTSUNNY   68  10  10 CALM      29.88F
LIMON          MOSUNNY   68   2   7 CALM      29.87F
MONUMENT HILL  CLOUDY    63   5  10 CALM      29.93F
TRINIDAD       PTSUNNY   67  23  19 N3        29.94F
$$

COZ042>045-048>051-090-091-282200-
...NORTHEAST COLORADO...

CITY           SKY/WX    TMP DP  RH WIND       PRES   REMARKS
GREELEY ARPT   CLOUDY    54  32  43 N8        29.81F
AKRON          PTSUNNY   63  23  21 W9        29.82F
BURLINGTON     NOT AVBL
WRAY           PTSUNNY   78  12   8 W8        29.77F
STERLING       PTSUNNY   57  37  47 S6        29.77F
HOLYOKE        PTSUNNY   70  19  14 W8        29.77F
FORT MORGAN    PTSUNNY   55  27  35 CALM      29.82F
$$

COZ086-089-092>099-282200-
...SOUTHEAST COLORADO...

CITY           SKY/WX    TMP DP  RH WIND       PRES   REMARKS
PUEBLO         MOSUNNY   74  10   8 SW9       29.84F
LA JUNTA       PTSUNNY   75  10   8 SW20      29.83F
LAMAR          MOSUNNY   76  15  10 W12       29.80F
SPRINGFIELD      N/A     76   7   7 W9G16     29.84F
$$



USA.gov is the U.S. government's official web portal to all federal, state and local government web resources and services.